Notices

What's New in latest Release from April 7th, 2021:

- Updated Glossary, including Speed of Maximum Gust, and Total Hourly Precipitation

- Updated national and regional climate services offices contacts and prices information

- Addition of station inventory lists for 1981-2010, 1971-2000, and 1961-1990 Normals.

If you haven't already, please take our survey and provide feedback about our website: https://eccc.sondage-survey.ca/f/LanguageSelection.aspx?s=442ca660-fcf1-47c0-95a9-59707d6fd709

Hourly Data Report for March 15, 2020

MIRAMICHI RCS
NEW BRUNSWICK
Current Station Operator: ECCC - MSC

47°00'34.000" N
65°27'54.000" W
33.00 m
8100989
71744
ACQ

Download Data

Hourly Data (March 2020)
Hourly Data Report for March 15, 2020
TIME
LST
Temp Definition
°C
Dew Point Definition
°C
Rel Hum Definition
%
Precip. Amount Definition
mm

Wind Dir Definition
10's deg

Wind Spd Definition
km/h
Visibility Definition
km
Stn Press Definition
kPa
Hmdx Definition


Wind Chill Definition


Weather Definition


00:00 -4.9 -11.5 60 LegendMM 28 22   101.31   -12 LegendNANA
01:00 -5.2 -11.8 59 LegendMM 28 17   101.40   -11 LegendNANA
02:00 -5.5 -12.5 58 LegendMM 29 18   101.54   -12 LegendNANA
03:00 -6.1 -12.6 60 LegendMM 28 17   101.58   -12 LegendNANA
04:00 -6.7 -12.9 61 LegendMM 28 15   101.62   -13 LegendNANA
05:00 -7.3 -13.1 63 LegendMM 28 17   101.74   -14 LegendNANA
06:00 -7.7 -13.1 65 LegendMM 27 15   101.86   -14 LegendNANA
07:00 -8.2 -13.5 66 LegendMM 25 10   101.99   -13 LegendNANA
08:00 -6.3 -13.2 58 LegendMM 29 23   102.05   -14 LegendNANA
09:00 -5.4 -13.1 55 LegendMM 31 24   102.10   -13 LegendNANA
10:00 -4.0 -12.6 51 LegendMM 30 17   102.15   -10 LegendNANA
11:00 -3.5 -11.8 52 LegendMM 30 18   102.15   -9 LegendNANA
12:00 -2.2 -11.9 47 LegendMM 30 17   102.13   -8 LegendNANA
13:00 -1.3 -11.8 44 LegendMM 30 15   102.10   -6 LegendNANA
14:00 -0.6 -11.5 43 LegendMM 28 16   102.05   -5 LegendNANA
15:00 -0.2 -11.4 43 LegendMM 29 23   102.04   -6 LegendNANA
16:00 -0.2 -10.9 44 LegendMM 29 18   102.12   -5 LegendNANA
17:00 -0.9 -12.3 42 LegendMM 30 19   102.20   -6 LegendNANA
18:00 -2.8 -12.9 46 LegendMM 30 21   102.32   -9 LegendNANA
19:00 -4.3 -13.5 49 LegendMM 31 20   102.45   -11 LegendNANA
20:00 -5.5 -15.1 47 LegendMM 30 12   102.53   -10 LegendNANA
21:00 -6.3 -15.2 49 LegendMM 31 9   102.58   -11 LegendNANA
22:00 -7.5 -15.3 54 LegendMM 31 3   102.62   -9 LegendNANA
23:00 -8.7 -15.4 59 LegendMM 28 9   102.65   -13 LegendNANA

Notes on Data Quality.

Legend

  • E = Estimated
  • M = Missing
  • NA = Not Available*
  • [empty] = Indicates an unobserved value
Date modified: